SIA921 WSSS-RPLL

Flight info

Callsign SIA921
Flight time N/A
Altitude 39000
Route TOMAN3E TOMAN L625 LUSMO N884 LUBAN LUBAN1D
Aircraft A339/H-SADE1E2E3GHIJ3J5M1P2RWXY/LB2D1

Departure

Time 2026-05-01 09:39
Airport Singapore Changi Airport (WSSS)

Arrival

Time N/A
Airport Ninoy Aquino International Airport (RPLL)
Time Latitude Longitude Altitude Speed Heading
2026-05-01 09:23 1.35103 103.98319 37 ft 0 kts 112°
2026-05-01 09:30 1.35108 103.98307 37 ft 2 kts 114°
2026-05-01 09:30 1.35115 103.98293 37 ft 2 kts 128°
2026-05-01 09:30 1.35137 103.98274 37 ft 2 kts 150°
2026-05-01 09:31 1.35151 103.98267 37 ft 2 kts 161°
2026-05-01 09:31 1.35165 103.98264 37 ft 2 kts 173°
2026-05-01 09:31 1.35195 103.98265 37 ft 2 kts 196°
2026-05-01 09:32 1.35204 103.98268 37 ft 0 kts 203°
2026-05-01 09:32 1.35198 103.98266 37 ft 0 kts 201°
2026-05-01 09:35 1.35143 103.98234 37 ft 7 kts 227°
2026-05-01 09:35 1.35110 103.98177 37 ft 11 kts 243°
2026-05-01 09:36 1.35065 103.98114 37 ft 9 kts 213°
2026-05-01 09:36 1.35005 103.98086 37 ft 10 kts 203°
2026-05-01 09:36 1.34932 103.98055 37 ft 12 kts 203°
2026-05-01 09:36 1.34855 103.98023 37 ft 11 kts 205°
2026-05-01 09:37 1.34822 103.97964 37 ft 10 kts 282°
2026-05-01 09:37 1.34888 103.97812 37 ft 11 kts 294°
2026-05-01 09:37 1.34926 103.97764 37 ft 8 kts 349°
2026-05-01 09:38 1.34957 103.97772 37 ft 0 kts 24°
2026-05-01 09:38 1.34964 103.97774 37 ft 8 kts 24°
2026-05-01 09:38 1.35251 103.97896 37 ft 79 kts 23°
2026-05-01 09:39 1.36974 103.98622 209 ft 169 kts 23°
2026-05-01 09:39 1.38080 103.99087 772 ft 172 kts 24°
2026-05-01 09:39 1.39164 103.99544 1393 ft 173 kts 24°
2026-05-01 09:40 1.40274 104.00011 2033 ft 174 kts 25°
2026-05-01 09:40 1.42710 104.01054 2841 ft 206 kts 25°
2026-05-01 09:40 1.44080 104.01640 3207 ft 225 kts 25°
2026-05-01 09:41 1.45584 104.02279 3616 ft 243 kts 25°
2026-05-01 09:41 1.48238 104.04523 4683 ft 266 kts 68°
2026-05-01 09:41 1.48562 104.06314 5476 ft 268 kts 94°
2026-05-01 09:42 1.48062 104.08092 6257 ft 271 kts 114°
2026-05-01 09:42 1.47247 104.09799 7015 ft 273 kts 112°
2026-05-01 09:42 1.46674 104.13542 8409 ft 279 kts 91°
2026-05-01 09:43 1.46560 104.17427 9807 ft 283 kts 92°
2026-05-01 09:43 1.46473 104.19385 10405 ft 289 kts 92°
2026-05-01 09:43 1.46368 104.21455 10725 ft 306 kts 92°
2026-05-01 09:44 1.46109 104.25906 11471 ft 333 kts 93°
2026-05-01 09:44 1.45967 104.28200 12140 ft 335 kts 93°
2026-05-01 09:44 1.45819 104.30546 12817 ft 338 kts 92°
2026-05-01 09:45 1.45671 104.32884 13442 ft 341 kts 92°
2026-05-01 09:45 1.46400 104.37481 14636 ft 347 kts 57°
2026-05-01 09:45 1.47983 104.39343 15292 ft 350 kts 49°
2026-05-01 09:46 1.49591 104.41155 15880 ft 353 kts 50°
2026-05-01 09:46 1.51203 104.43025 16447 ft 357 kts 51°
2026-05-01 09:46 1.52804 104.44916 17036 ft 360 kts 51°
2026-05-01 09:46 1.54409 104.46833 17608 ft 363 kts 52°
2026-05-01 09:47 1.56043 104.48798 18157 ft 366 kts 52°
2026-05-01 09:47 1.57669 104.50762 18706 ft 369 kts 52°
2026-05-01 09:47 1.59309 104.52747 19251 ft 372 kts 52°
2026-05-01 09:47 1.60961 104.54748 19769 ft 375 kts 52°
2026-05-01 09:48 1.62620 104.56763 20274 ft 378 kts 52°
2026-05-01 09:48 1.64304 104.58808 20761 ft 382 kts 52°
2026-05-01 09:48 1.65991 104.60857 21256 ft 384 kts 52°
2026-05-01 09:48 1.67705 104.62940 21710 ft 387 kts 52°
2026-05-01 09:49 1.69413 104.65018 22136 ft 391 kts 52°
2026-05-01 09:49 1.71155 104.67136 22587 ft 394 kts 52°
2026-05-01 09:49 1.72888 104.69246 23036 ft 396 kts 52°
2026-05-01 09:49 1.74642 104.71380 23477 ft 399 kts 52°
2026-05-01 09:50 1.76414 104.73537 23910 ft 402 kts 52°
2026-05-01 09:50 1.78200 104.75707 24331 ft 405 kts 52°
2026-05-01 09:50 1.80000 104.77895 24758 ft 408 kts 52°
2026-05-01 09:50 1.81782 104.80063 25158 ft 411 kts 51°
2026-05-01 09:51 1.83605 104.82280 25539 ft 414 kts 51°
2026-05-01 09:51 1.85445 104.84517 25936 ft 416 kts 51°
2026-05-01 09:51 1.87291 104.86762 26309 ft 419 kts 51°
2026-05-01 09:51 1.89157 104.89032 26675 ft 422 kts 51°
2026-05-01 09:52 1.91010 104.91286 27019 ft 426 kts 51°
2026-05-01 09:52 1.92891 104.93574 27360 ft 429 kts 51°
2026-05-01 09:52 1.94788 104.95880 27721 ft 431 kts 51°
2026-05-01 09:52 1.96697 104.98201 28094 ft 433 kts 51°
2026-05-01 09:53 1.98635 105.00558 28449 ft 435 kts 51°
2026-05-01 09:53 2.00569 105.02910 28792 ft 438 kts 51°
2026-05-01 09:53 2.02481 105.05236 29155 ft 440 kts 51°
2026-05-01 09:53 2.04452 105.07634 29526 ft 442 kts 50°
2026-05-01 09:54 2.06387 105.09988 29866 ft 444 kts 50°
2026-05-01 09:54 2.08368 105.12398 30195 ft 446 kts 50°
2026-05-01 09:54 2.10322 105.14775 30550 ft 448 kts 50°
2026-05-01 09:54 2.12304 105.17185 30891 ft 450 kts 50°
2026-05-01 09:55 2.14314 105.19630 31197 ft 452 kts 51°
2026-05-01 09:55 2.16320 105.22070 31507 ft 455 kts 51°
2026-05-01 09:55 2.18330 105.24517 31810 ft 457 kts 51°
2026-05-01 09:55 2.20343 105.26967 32108 ft 459 kts 51°
2026-05-01 09:56 2.22374 105.29438 32438 ft 460 kts 51°
2026-05-01 09:56 2.24402 105.31906 32916 ft 459 kts 51°
2026-05-01 09:56 2.26405 105.34345 33415 ft 458 kts 51°
2026-05-01 09:56 2.28429 105.36808 33910 ft 457 kts 51°
2026-05-01 09:57 2.30458 105.39278 34406 ft 456 kts 51°
2026-05-01 09:57 2.32466 105.41724 34932 ft 454 kts 51°
2026-05-01 09:57 2.34450 105.44139 35432 ft 452 kts 51°
2026-05-01 09:57 2.36446 105.46571 35911 ft 451 kts 51°
2026-05-01 09:58 2.38421 105.48976 36290 ft 451 kts 51°
2026-05-01 09:58 2.40408 105.51396 36645 ft 451 kts 51°
2026-05-01 09:58 2.42411 105.53835 37035 ft 451 kts 51°
2026-05-01 09:58 2.44402 105.56260 37367 ft 451 kts 51°
2026-05-01 09:59 2.46384 105.58674 37628 ft 452 kts 51°
2026-05-01 09:59 2.48377 105.61103 37874 ft 454 kts 51°
2026-05-01 09:59 2.50400 105.63567 38116 ft 456 kts 51°
2026-05-01 09:59 2.52416 105.66023 38354 ft 457 kts 51°
2026-05-01 10:00 2.54412 105.68456 38595 ft 458 kts 51°
2026-05-01 10:00 2.56439 105.70927 38805 ft 460 kts 51°
2026-05-01 10:00 2.60524 105.75902 38810 ft 461 kts 51°
2026-05-01 10:01 2.64585 105.80851 38808 ft 461 kts 51°
2026-05-01 10:01 2.68639 105.85789 38808 ft 461 kts 51°
2026-05-01 10:02 2.72731 105.90778 38809 ft 462 kts 51°
2026-05-01 10:02 2.76782 105.95714 38805 ft 462 kts 51°
2026-05-01 10:03 2.80872 106.00700 38809 ft 462 kts 51°
2026-05-01 10:03 2.84928 106.05647 38809 ft 462 kts 51°
2026-05-01 10:04 2.89020 106.10637 38809 ft 461 kts 51°
2026-05-01 10:04 2.93070 106.15575 38809 ft 461 kts 51°
2026-05-01 10:05 2.97139 106.20538 38810 ft 460 kts 51°
2026-05-01 10:05 3.01196 106.25486 38812 ft 460 kts 51°
2026-05-01 10:06 3.05269 106.30454 38818 ft 461 kts 51°
2026-05-01 10:06 3.09313 106.35391 38823 ft 460 kts 51°
2026-05-01 10:07 3.13371 106.40345 38830 ft 460 kts 51°
2026-05-01 10:07 3.17426 106.45293 38831 ft 459 kts 51°
2026-05-01 10:08 3.23496 106.52705 38832 ft 459 kts 51°
2026-05-01 10:09 3.27523 106.57620 38832 ft 459 kts 51°
2026-05-01 10:09 3.31587 106.62585 38832 ft 459 kts 51°
2026-05-01 10:10 3.35633 106.67529 38832 ft 459 kts 51°
2026-05-01 10:10 3.41681 106.74918 38825 ft 459 kts 51°
2026-05-01 10:11 3.45715 106.79851 38815 ft 459 kts 51°
2026-05-01 10:11 3.49777 106.84816 38811 ft 459 kts 51°
2026-05-01 10:12 3.50450 106.85639 38811 ft 459 kts 51°
2026-05-01 10:13 3.59602 106.96868 38811 ft 459 kts 51°
2026-05-01 10:13 3.63629 107.01866 38811 ft 460 kts 51°
2026-05-01 10:14 3.69633 107.09318 38811 ft 460 kts 51°
2026-05-01 10:14 3.73673 107.14332 38811 ft 461 kts 51°
2026-05-01 10:15 3.77670 107.19293 38811 ft 461 kts 51°
2026-05-01 10:15 3.81697 107.24293 38811 ft 461 kts 51°
2026-05-01 10:16 3.85721 107.29288 38811 ft 461 kts 51°
2026-05-01 10:17 3.91765 107.36797 38811 ft 461 kts 51°
2026-05-01 10:17 3.97790 107.44282 38814 ft 461 kts 51°
2026-05-01 10:18 4.03832 107.51790 38820 ft 461 kts 51°
2026-05-01 10:19 4.07834 107.56763 38826 ft 461 kts 51°
2026-05-01 10:19 4.11858 107.61764 38831 ft 461 kts 51°
2026-05-01 10:20 4.17868 107.69238 38832 ft 460 kts 51°
2026-05-01 10:20 4.21897 107.74250 38831 ft 460 kts 51°
2026-05-01 10:21 4.27902 107.81718 38829 ft 460 kts 51°
2026-05-01 10:22 4.33931 107.89223 38828 ft 459 kts 51°
2026-05-01 10:23 4.39927 107.96688 38831 ft 459 kts 51°
2026-05-01 10:23 4.45909 108.04135 38832 ft 459 kts 51°
2026-05-01 10:24 4.53922 108.14117 38831 ft 459 kts 51°
2026-05-01 10:25 4.61898 108.24058 38828 ft 459 kts 51°
2026-05-01 10:26 4.65891 108.29040 38831 ft 459 kts 51°
2026-05-01 10:27 4.73906 108.39030 38831 ft 466 kts 51°
2026-05-01 10:27 4.78070 108.44160 38825 ft 477 kts 51°
2026-05-01 10:28 4.80161 108.46735 38817 ft 482 kts 51°
2026-05-01 10:28 4.86551 108.54617 38809 ft 486 kts 51°
2026-05-01 10:29 4.92932 108.62498 38809 ft 487 kts 50°
2026-05-01 10:30 5.01466 108.73043 38811 ft 486 kts 50°
2026-05-01 10:31 5.09315 108.82748 38811 ft 487 kts 50°
2026-05-01 10:32 5.15733 108.90685 38812 ft 487 kts 50°
2026-05-01 10:33 5.24269 109.01244 38826 ft 487 kts 50°
2026-05-01 10:34 5.30645 109.09136 38833 ft 487 kts 50°
2026-05-01 10:34 5.34928 109.14439 38833 ft 488 kts 50°
2026-05-01 10:35 5.41310 109.22343 38835 ft 488 kts 50°
2026-05-01 10:35 5.45602 109.27662 38832 ft 488 kts 50°
2026-05-01 10:36 5.51998 109.35589 38835 ft 487 kts 50°
2026-05-01 10:37 5.56252 109.40864 38834 ft 488 kts 50°
2026-05-01 10:37 5.62650 109.48798 38836 ft 489 kts 50°
2026-05-01 10:38 5.66923 109.54099 38831 ft 489 kts 50°
2026-05-01 10:38 5.71216 109.59427 38836 ft 489 kts 50°
2026-05-01 10:39 5.75480 109.64720 38835 ft 489 kts 50°
2026-05-01 10:39 5.79767 109.70042 38839 ft 489 kts 50°
2026-05-01 10:40 5.84043 109.75352 38833 ft 490 kts 50°
2026-05-01 10:40 5.88321 109.80667 38834 ft 490 kts 50°
2026-05-01 10:41 5.92603 109.85986 38834 ft 490 kts 50°
2026-05-01 10:42 5.99016 109.93958 38834 ft 490 kts 50°
2026-05-01 10:42 6.03294 109.99277 38831 ft 490 kts 50°
2026-05-01 10:43 6.07579 110.04607 38831 ft 490 kts 50°
2026-05-01 10:43 6.11865 110.09939 38828 ft 491 kts 50°
2026-05-01 10:44 6.16141 110.15263 38825 ft 491 kts 50°
2026-05-01 10:44 6.20446 110.20622 38819 ft 490 kts 50°
2026-05-01 10:45 6.24704 110.25922 38816 ft 491 kts 50°
2026-05-01 10:45 6.28992 110.31264 38816 ft 491 kts 50°
2026-05-01 10:46 6.33284 110.36611 38823 ft 491 kts 50°
2026-05-01 10:46 6.37582 110.41968 38827 ft 492 kts 50°
2026-05-01 10:47 6.41876 110.47321 38832 ft 491 kts 50°
2026-05-01 10:47 6.46159 110.52663 38826 ft 491 kts 50°
2026-05-01 10:48 6.50432 110.57995 38831 ft 491 kts 50°
2026-05-01 10:48 6.54731 110.63359 38828 ft 492 kts 50°
2026-05-01 10:49 6.59027 110.68720 38826 ft 492 kts 50°
2026-05-01 10:49 6.63295 110.74049 38828 ft 492 kts 50°
2026-05-01 10:50 6.67600 110.79425 38831 ft 492 kts 50°
2026-05-01 10:50 6.71894 110.84789 38831 ft 493 kts 50°
2026-05-01 10:51 6.76206 110.90179 38832 ft 493 kts 50°
2026-05-01 10:51 6.80486 110.95531 38831 ft 493 kts 50°
2026-05-01 10:52 6.84783 111.00904 38832 ft 493 kts 50°
2026-05-01 10:52 6.89069 111.06267 38832 ft 493 kts 50°
2026-05-01 10:53 6.93382 111.11661 38832 ft 493 kts 50°
2026-05-01 10:53 6.97680 111.17042 38832 ft 493 kts 50°
2026-05-01 10:54 7.01960 111.22402 38832 ft 493 kts 50°
2026-05-01 10:54 7.06247 111.27774 38834 ft 493 kts 50°
2026-05-01 10:55 7.10550 111.33169 38833 ft 493 kts 50°
2026-05-01 10:55 7.14824 111.38528 38834 ft 493 kts 50°
2026-05-01 10:56 7.19133 111.43932 38831 ft 493 kts 50°
2026-05-01 10:56 7.23408 111.49298 38832 ft 493 kts 50°
2026-05-01 10:57 7.27690 111.54674 38833 ft 493 kts 50°
2026-05-01 10:57 7.31984 111.60085 38833 ft 493 kts 50°
2026-05-01 10:58 7.36194 111.65408 38833 ft 493 kts 50°
2026-05-01 10:58 7.40459 111.70803 38833 ft 493 kts 50°
2026-05-01 10:59 7.44735 111.76215 38832 ft 493 kts 50°
2026-05-01 10:59 7.49004 111.81620 38833 ft 494 kts 50°
2026-05-01 11:00 7.53276 111.87031 38839 ft 493 kts 50°
2026-05-01 11:00 7.57525 111.92415 38841 ft 493 kts 50°
2026-05-01 11:01 7.61783 111.97813 38846 ft 493 kts 50°
2026-05-01 11:01 7.66067 112.03247 38851 ft 493 kts 50°
2026-05-01 11:02 7.70328 112.08649 38850 ft 493 kts 50°
2026-05-01 11:02 7.74599 112.14069 38846 ft 494 kts 50°
2026-05-01 11:03 7.78865 112.19484 38844 ft 494 kts 50°
2026-05-01 11:03 7.83143 112.24917 38842 ft 494 kts 50°
2026-05-01 11:04 7.87390 112.30312 38838 ft 494 kts 50°
2026-05-01 11:04 7.91663 112.35742 38832 ft 494 kts 50°
2026-05-01 11:05 7.95938 112.41176 38832 ft 494 kts 50°
2026-05-01 11:05 8.00217 112.46618 38831 ft 494 kts 50°
2026-05-01 11:06 8.04467 112.52026 38830 ft 495 kts 50°
2026-05-01 11:06 8.08738 112.57459 38830 ft 496 kts 50°
2026-05-01 11:07 8.15170 112.65652 38830 ft 495 kts 50°
2026-05-01 11:07 8.19446 112.71098 38832 ft 495 kts 51°
2026-05-01 11:08 8.23719 112.76543 38832 ft 495 kts 50°
2026-05-01 11:09 8.30134 112.84722 38837 ft 495 kts 51°
2026-05-01 11:09 8.34383 112.90144 38835 ft 495 kts 51°
2026-05-01 11:10 8.40809 112.98347 38831 ft 496 kts 50°
2026-05-01 11:10 8.45074 113.03793 38833 ft 496 kts 51°
2026-05-01 11:11 8.49351 113.09254 38837 ft 496 kts 51°
2026-05-01 11:11 8.53623 113.14713 38841 ft 496 kts 51°
2026-05-01 11:12 8.57894 113.20175 38835 ft 495 kts 51°
2026-05-01 11:12 8.62144 113.25610 38835 ft 495 kts 51°
2026-05-01 11:13 8.66407 113.31064 38836 ft 494 kts 51°
2026-05-01 11:13 8.70649 113.36494 38840 ft 493 kts 51°
2026-05-01 11:14 8.74904 113.41942 38850 ft 493 kts 51°
2026-05-01 11:14 8.79146 113.47378 38850 ft 493 kts 51°
2026-05-01 11:15 8.83414 113.52847 38856 ft 493 kts 51°
2026-05-01 11:15 8.87660 113.58290 38854 ft 493 kts 51°
2026-05-01 11:16 8.91885 113.63709 38852 ft 493 kts 51°
2026-05-01 11:16 8.96114 113.69138 38851 ft 492 kts 51°
2026-05-01 11:17 9.00365 113.74594 38847 ft 491 kts 51°
2026-05-01 11:17 9.04565 113.79990 38841 ft 491 kts 51°
2026-05-01 11:18 9.08790 113.85420 38837 ft 492 kts 51°
2026-05-01 11:18 9.13022 113.90859 38841 ft 493 kts 51°
2026-05-01 11:19 9.17248 113.96294 38839 ft 493 kts 51°
2026-05-01 11:19 9.21509 114.01775 38839 ft 493 kts 51°
2026-05-01 11:20 9.25736 114.07217 38836 ft 492 kts 51°
2026-05-01 11:20 9.29957 114.12652 38835 ft 492 kts 51°
2026-05-01 11:21 9.34190 114.18103 38837 ft 493 kts 51°
2026-05-01 11:21 9.38426 114.23563 38837 ft 493 kts 51°
2026-05-01 11:22 9.42661 114.29023 38834 ft 493 kts 51°
2026-05-01 11:22 9.46871 114.34455 38832 ft 493 kts 51°
2026-05-01 11:23 9.51107 114.39922 38832 ft 493 kts 51°
2026-05-01 11:23 9.55341 114.45388 38832 ft 492 kts 51°
2026-05-01 11:24 9.59546 114.50819 38832 ft 492 kts 51°
2026-05-01 11:25 9.65187 114.58110 38832 ft 493 kts 52°
2026-05-01 11:25 9.67287 114.60828 38832 ft 493 kts 51°